Location: Auttagershofen
(48.1940°N, 10.0237°E)
Time: 15:17:28
(UTC+00:00)

Thor Agena Rocket - Pass Details

Date: 18 January 2026
Orbit: 755 x 802 km, 99.1° (Epoch: 10 February)

Event Time Altitude Azimuth Distance (km) Brightness Sun altitude
Rises 05:38:57 0° 17° (NNE) 3,247 6.8 -13.8°
Reaches altitude 10° 05:41:17 10° 21° (NNE) 2,322 6.1 -13.4°
Maximum altitude 05:46:22 63° 103° (ESE) 868 4.1 -12.6°
Drops below altitude 10° 05:51:28 10° 184° (S) 2,335 6.2 -11.8°
Sets 05:53:49 0° 188° (S) 3,266 6.9 -11.4°
